Find NEE-02 KRYSAOR

NORAD ID: 39441 Int'l Des: 2013-066 Owner: EXA Country: EC operational
LEOCIRCULARRETROGRADESSO

实时位置

正在加载3D地球...

关于 NEE-02 KRYSAOR

正在加载描述...

即将过境

Passes for default location (London). Set your location on the main map for personalized predictions.

高度历史

Loading altitude history...

两行轨道根数

1 39441U 13066AB 26106.28060328 .00001188 00000-0 13619-3 0 9992
2 39441 97.8860 45.9617 0064823 272.9124 86.4674 14.86398467667003
Epoch: Apr 16, 2026 • Age: 9 hours

当前状态

高度 661.2 km
速度 7.51 km/s
星下点 62.91°N, 167.09°E
发射日期 Nov 21, 2013
运行时间 12.3 years
类型 other

技术详情

分类 Payload
质量 1.00 kg
干质量 1.00 kg
总质量 1.00 kg
长度 0.10 m
直径 0.10 m
跨度 0.30 m
形状 Box+2 pan
制造商 EXA
平台类型 Cubesat 1U
阶段状态 In Orbit
所有者/国家 EXA/EC

Most Searched